Location: Lencloître
(46.8162°N, 0.3283°E)
Time: 16:47:34
(UTC+00:00)

Daily predictions for brighter satellites

Satellite Brightness Start Highest point End
(mag) Time Altitude Azimuth Time Altitude Azimuth Time Altitude Azimuth
Okean 3 3.9 18:38:53 10° N 18:42:52 39° ENE 18:46:50 10° SE
Okean 1-7 3.5 18:39:53 10° N 18:44:02 41° ENE 18:48:09 10° SSE
Cosmos 1666 Rocket 4.0 18:40:20 10° SSW 18:44:41 70° W 18:49:04 10° N
Cosmos 1933 Rocket 4.2 18:41:34 10° SSE 18:45:27 34° E 18:49:22 10° NNE
Cosmos 1624 Rocket 4.2 18:40:46 10° S 18:45:52 51° ESE 18:51:01 10° NNE
Iridium 4 Rocket 4.4 18:44:07 10° NNE 18:47:03 18° ENE 18:49:58 10° ESE
Meteor 1-11 Rocket 4.2 18:42:58 10° SSW 18:48:53 73° WNW 18:54:44 10° N
CSL-04 Rocket 4.5 18:44:29 10° SE 18:49:23 33° ENE 18:54:16 10° N
Cosmos 2333 4.3 18:44:40 10° NNW 18:50:30 90° WSW 18:56:17 10° SSE
Cosmos 2322 Rocket 3.6 18:45:35 10° NW 18:50:56 42° WSW 18:56:15 10° S
In-Cosmos 22 4.3 18:45:29 10° N 18:51:04 60° ENE 18:56:43 10° SSE
Exosat Rocket 3.9 18:46:34 10° S 18:51:28 50° ESE 18:57:33 10° NNE
Cosmos 1420 Rocket 4.1 18:47:58 10° S 18:53:03 55° ESE 18:58:08 10° NNE
Cosmos 2237 Rocket 3.6 18:48:44 10° N 18:53:06 22° NE 18:57:25 10° E
KORONAS-FOTON 4.1 18:49:32 10° N 18:53:13 45° ENE 18:56:54 10° SSE
Cosmos 1842 3.2 18:49:34 10° N 18:53:25 86° W 18:57:12 10° S
GEOS 3 Rocket 3.7 18:49:57 10° NE 18:55:23 78° SE 19:00:46 10° SW
Cosmos 1862 Rocket 4.2 18:51:15 10° NNW 18:55:39 62° W 19:00:04 10° S
Meteor 1-21 4.4 18:50:45 10° N 18:56:12 49° ENE 19:01:40 10° SSE
Cosmos 1459 Rocket 4.0 18:50:34 10° N 18:56:31 55° ENE 19:02:26 10° SSE
CZ-4C R/B 4.4 18:52:44 10° NNW 18:57:15 20° NNE 19:02:27 10° ENE
USA 305 3.3 18:55:50 10° WNW 18:59:32 51° SW 19:03:13 10° SE
MOS 1-B 4.5 18:57:49 10° SSE 19:03:38 85° WSW 19:09:28 10° NNW
USA 307 3.6 19:00:01 10° WNW 19:03:41 44° SW 19:07:19 10° SSE
Cosmos 1633 Rocket 4.0 18:59:28 10° SSW 19:03:45 54° WNW 19:08:06 10° N
Cosmos 1725 Rocket 4.4 18:58:04 10° N 19:03:52 40° ENE 19:09:39 10° SE
DMSP B5D1-3 4.5 18:58:48 10° NNE 19:03:59 81° ESE 19:09:07 10° SSW
Resurs 01 Rocket 3.1 19:03:03 12° ESE 19:05:42 19° ENE 19:08:51 10° NNE
CZ-4B R/B 3.4 19:01:23 10° SSE 19:07:03 83° WSW 19:12:44 10° NNW
Lacrosse 5 rocket 3.3 19:05:59 10° SE 19:07:26 12° ESE 19:07:26 12° ESE
Cosmos 2322 3.7 19:02:21 10° NNW 19:08:03 73° ENE 19:13:41 10° SSE
Cosmos 1975 3.0 19:05:30 10° SSE 19:09:17 45° E 19:13:04 10° NNE
Cosmos 1452 Rocket 4.4 19:05:59 10° SSE 19:10:21 27° E 19:14:44 10° NE
Cosmos 1707 2.6 19:07:28 10° N 19:11:18 88° ENE 19:15:05 10° S
Cosmos 676 Rocket 4.0 19:06:06 10° NNW 19:11:20 76° ENE 19:16:35 10° SSE
SJ-6B 2.9 19:07:48 10° SSE 19:11:38 55° ENE 19:15:26 10° N
Cosmos 1805 4.3 19:10:01 10° SE 19:13:07 24° E 19:16:15 10° NE
Cosmos 2333 Rocket 3.0 19:09:57 10° NW 19:15:36 56° WSW 19:21:12 10° S
USA 215 4.0 19:10:59 10° NE 19:17:16 51° NNW 19:23:31 10° W
Cosmos 2219 Rocket 2.4 19:12:07 10° NNW 19:17:49 78° WSW 19:23:28 10° SSE
Cosmos 1802 Rocket 4.0 19:12:17 10° N 19:18:29 65° ENE 19:24:45 10° SSE
ISS -2.8 19:15:32 10° W 19:18:45 43° NNW 19:21:37 12° ENE
SL-27 R/B 2.1 19:16:40 10° SSW 19:19:57 84° ESE 19:23:15 10° NNE
Meteor 2-9 Rocket 4.4 19:14:57 10° SSW 19:20:28 75° WNW 19:25:53 10° N
Cosmos 1703 Rocket 3.5 19:16:12 10° N 19:20:41 83° E 19:25:06 10° S
IGS 5A 3.5 19:16:49 10° SSE 19:20:56 83° WSW 19:25:05 10° NNW
Cosmos 1674 2.6 19:18:41 10° N 19:22:25 85° W 19:26:08 10° S
CSL-04 Debris 4.2 19:19:24 10° SSE 19:24:45 67° ENE 19:30:10 10° N
EXPRESS MD2 3.7 19:23:16 10° W 19:25:10 24° SSW 19:26:19 16° SSE
Resurs 1-3 3.6 19:21:28 10° SSE 19:25:45 59° ENE 19:30:05 10° N
COSMOS 2428 2.7 19:21:04 10° NNW 19:26:50 78° ENE 19:32:31 10° SSE
SL-14 R/B 3.9 19:23:20 10° N 19:26:51 33° ENE 19:28:35 22° ESE
USA 186 1.5 19:26:44 10° SSE 19:29:48 77° ENE 19:32:55 10° N
BREEZE M DEB (TANK) 2.2 19:28:15 10° W 19:30:55 55° NNW 19:31:58 25° ENE
Spot 1 4.4 19:26:14 10° NNE 19:31:10 85° ESE 19:36:17 10° SSW
USA 308 4.4 19:28:39 10° WNW 19:31:51 26° SW 19:35:01 10° SSE
Okean-O 2.8 19:29:28 14° SE 19:33:02 51° ENE 19:37:20 10° N
Cosmos 1954 Rocket 4.5 19:28:27 10° NNW 19:33:38 63° WSW 19:38:49 10° S
Cosmos 2016 Rocket 3.9 19:28:28 10° N 19:34:34 71° E 19:40:41 10° SSE
Cosmos 2297 Rocket 3.0 19:30:24 10° SSE 19:35:03 27° ESE 19:39:44 10° NE
Cosmos 2123 Rocket 4.0 19:30:39 10° S 19:36:52 70° E 19:43:10 10° NNE
Cosmos 1733 Rocket 4.2 19:38:38 22° E 19:38:38 22° E 19:41:37 10° NE
Cosmos 1726 2.2 19:35:28 10° SSE 19:38:43 43° E 19:42:05 10° NNE
CZ-4 R/B 2.7 19:35:51 10° SSW 19:39:25 38° W 19:43:04 10° NNW
Cosmos 2173 Rocket 4.3 19:33:39 10° NNW 19:40:01 71° W 19:46:20 10° S
Okean O Rocket 2.6 19:38:51 10° S 19:43:07 47° W 19:47:24 10° NNW
NOSS 0 Rocket 3.9 19:38:02 10° NNW 19:44:15 71° ENE 19:48:33 21° SE
SL-08 R/B 4.5 19:38:37 10° N 19:45:02 73° E 19:51:18 10° SSE
Cosmos 2242 Rocket 3.6 19:41:08 10° N 19:45:46 86° E 19:50:18 10° S
Ariane Rocket 4.2 19:47:24 22° ENE 19:48:18 23° ENE 19:52:15 10° N
Helios 1B 4.4 19:45:43 10° NNE 19:50:03 68° ESE 19:54:21 10° S
Cosmos 2227 Rocket 4.0 19:53:55 14° ENE 19:53:55 14° ENE 19:55:04 10° NE
Cosmos 1733 3.0 19:49:04 10° S 19:52:50 90° ESE 19:56:38 10° N
Cosmos 1867 3.7 19:49:42 10° SSW 19:54:55 51° ESE 20:00:12 10° NE
Okean 2 3.3 19:55:58 10° N 20:00:03 88° W 20:02:24 25° S
SL-16 R/B 3.5 19:57:16 10° N 20:01:53 25° NE 20:03:15 23° ENE
NOSS 3-2 (A) 4.2 19:59:58 10° NW 20:07:30 74° SW 20:13:45 21° SSE
NOSS 3-2 (C) 4.0 20:09:54 10° NW 20:17:23 82° NE 20:21:41 33° SE
H-2A R/B 3.5 20:18:42 34° NE 20:18:42 34° NE 20:22:13 10° N
Meteor 2-10 4.3 20:14:28 10° SSW 20:19:27 65° WNW 20:24:31 10° N
CENTAUR R/B 3.6 20:12:45 10° NW 20:20:55 63° WSW 20:27:29 20° SSE
Geosat 4.1 20:18:44 33° SSE 20:20:59 70° WSW 20:26:02 10° NNW
SJ 16-02 3.6 20:21:24 10° NNE 20:22:49 13° NE 20:22:49 13° NE
Iridium 4 Rocket 4.3 20:23:17 10° NNW 20:27:12 39° W 20:31:05 10° SSW
Cosmos 2233 Rocket 4.1 20:23:19 10° NNW 20:29:27 74° W 20:33:52 20° S
Cosmos 1850 Rocket 4.4 20:25:01 10° NNW 20:30:16 60° WSW 20:32:43 31° S
SPOT 1/Viking Rocket 3.9 20:27:33 25° S 20:30:33 63° WSW 20:35:44 10° NNW
USA 238 DEB 3.8 20:23:32 10° NW 20:30:52 80° NE 20:33:45 43° SE
USA 238 3.8 20:23:38 10° NW 20:30:58 80° NE 20:33:50 43° SE
Cosmos 1766 4.2 20:32:37 37° NNE 20:32:37 37° NNE 20:35:01 10° N
Cosmos 2237 Rocket 2.2 20:32:09 10° NNW 20:37:48 78° WSW 20:39:16 51° S
Cosmos 1110 Rocket 4.1 20:33:02 10° SSW 20:38:15 76° WNW 20:43:28 10° NNE
Terra 3.2 20:40:22 26° NE 20:40:22 26° NE 20:43:11 10° N
Meteor 1-12 Rocket 4.3 20:39:36 56° E 20:39:36 56° E 20:45:01 10° NNE
Resurs 01 Rocket 2.3 20:40:34 39° SSW 20:41:49 51° W 20:46:09 10° NNW
Landsat 5 4.3 20:41:37 10° N 20:45:18 45° WNW 20:47:02 27° SW
Lacrosse 5 rocket 3.3 20:41:32 10° SW 20:42:54 20° SW 20:42:54 20° SW
ATLAS CENTAUR R/B 4.3 20:30:57 10° SW 20:47:20 82° NW 20:54:45 10° NE
CZ-4C R/B 3.6 20:41:16 10° NNW 20:47:40 40° NE 20:49:46 34° ENE
MetOp-B 4.0 20:50:58 76° SSE 20:51:25 90° ENE 20:56:49 10° NNW
SPOT 5 3.4 20:53:49 45° NNE 20:53:49 45° NNE 20:57:24 10° N
MetOp-A 4.2 20:52:25 61° SSW 20:53:14 73° WSW 20:58:30 10° NNW
ISS -1.4 20:52:51 10° WNW 20:54:34 24° NW 20:54:34 24° NW
Cosmos 1331 Rocket 4.4 20:51:12 10° SW 20:56:15 59° WNW 21:01:23 10° NNE
Meteor 1-24 Rocket 3.9 20:50:48 10° N 20:56:26 62° ENE 20:56:26 62° ENE
FALCON 9 R/B 3.8 20:40:03 10° WSW 20:57:19 39° SSW 20:58:48 37° S
Cosmos 1072 Rocket 4.4 20:51:07 10° N 20:57:33 71° E 20:57:57 69° ESE
Cosmos 1980 4.3 20:53:20 10° NW 20:58:49 51° WSW 21:00:05 43° SSW
USA 215 4.4 20:55:21 18° NE 20:59:30 36° N 21:05:21 10° WNW
ADEOS Rocket 3.2 21:05:22 58° ENE 21:05:24 58° ENE 21:12:10 10° N
Cosmos 1733 Rocket 4.4 21:15:36 35° W 21:15:48 35° WNW 21:19:47 10° N
Cosmos 968 Rocket 4.0 21:12:40 10° NNW 21:17:19 53° W 21:17:19 53° W
Cosmos 2297 Rocket 2.9 21:13:17 10° SW 21:18:47 52° WNW 21:24:19 10° NNE
Meteor 2-5 Rocket 3.8 21:14:09 10° NNW 21:19:36 77° NW 21:19:36 77° NW
ERS-1 Rocket 3.8 21:25:22 47° NNW 21:25:22 47° NNW 21:28:55 10° NNW
Ariane Rocket 3.7 21:27:34 50° WNW 21:27:34 50° WNW 21:31:54 10° NNW
Cosmos 1464 Rocket 4.0 21:20:48 10° N 21:27:08 79° W 21:27:08 79° W
Cosmos 2227 Rocket 2.9 21:35:34 50° N 21:35:34 50° N 21:39:59 10° NNE
Spot 2 Rocket 4.5 21:39:21 44° NNW 21:39:21 44° NNW 21:42:53 10° NNW
SL-16 R/B 2.9 21:40:52 10° NNW 21:45:08 50° NW 21:45:08 50° NW
ATLAS 3B R/B 4.0 21:56:01 10° NNW 22:02:41 33° NNE 22:03:35 32° NE
SJ 16-02 3.9 21:58:27 10° NNW 21:59:43 19° NNW 21:59:43 19° NNW
Terra 4.1 22:19:07 21° NW 22:19:07 21° NW 22:20:58 10° NNW
CZ-4C R/B 3.5 22:29:31 10° NW 22:34:55 54° WNW 22:34:55 54° WNW
USA 215 4.1 22:42:40 44° N 22:42:40 44° N 22:47:54 10° NW
ATLAS CENTAUR R/B 4.4 22:53:01 10° W 23:03:10 38° NNW 23:04:24 36° N
Cosmos 2344 4.2 23:21:33 10° NW 23:28:51 70° NNW 23:28:51 70° NNW
